This demonstration page uses our WeatherBlox Daily Observations layout. Learn more.

Hourly Observations for January 16, 2021

Temp ( °F °C ) Dew Point ( °F °C ) Humidity (%) Winds ( mph kmh ) Pressure ( in mb ) Visibility ( mi km ) Precip ( " mm )
12:15 am 00:15 Clear 23 -5 17 -8.5 77 77 NW 7 11 30.11 1020 10 16.0934 0 0
12:35 am 00:35 Clear 24 -4.6 17 -8.2 76 76 NW 3 6 30.1 1019 10 16.0934 0 0
12:55 am 00:55 Clear 24 -4.3 17 -8.1 75 75 NNW 6 9 30.1 1019 10 16.0934 0 0
1:15 am 01:15 Clear 25 -3.8 18 -8 73 73 N 5 7 30.07 1018 10 16.0934 0 0
1:35 am 01:35 Clear 24 -4.7 17 -8.2 77 77 Calm 30.08 1019 10 16.0934 0 0
1:55 am 01:55 Clear 23 -4.8 17 -8.3 77 77 NW 7 11 30.09 1019 10 16.0934 0 0
2:15 am 02:15 Clear 21 -6.1 16 -8.9 81 81 NW 7 11 30.1 1019 10 16.0934 0 0
2:35 am 02:35 Clear 24 -4.6 18 -8 77 77 NW 5 7 30.09 1019 10 16.0934 0 0
2:55 am 02:55 Clear 24 -4.5 18 -7.8 78 78 NW 5 7 30.08 1019 10 16.0934 0 0
3:15 am 03:15 Clear 24 -4.2 18 -8 75 75 Calm 30.07 1018 10 16.0934 0 0
3:35 am 03:35 Clear 24 -4.3 18 -8 76 76 WNW 3 6 30.07 1018 10 16.0934 0 0
3:55 am 03:55 Partly Cloudy 24 -4.7 17 -8.1 77 77 W 5 7 30.07 1018 10 16.0934 0 0
4:15 am 04:15 Mostly Cloudy 24 -4.5 17 -8.2 76 76 WNW 5 7 30.07 1018 10 16.0934 0 0
4:35 am 04:35 Cloudy 24 -4.5 18 -8 77 77 WNW 5 7 30.06 1018 10 16.0934 0 0
4:55 am 04:55 Cloudy 25 -3.8 18 -8 73 73 W 3 6 30.04 1017 10 16.0934 0 0
5:15 am 05:15 Cloudy 26 -3.2 19 -7.5 72 72 WNW 5 7 30.05 1017 10 16.0934 0 0
5:35 am 05:35 Cloudy 26 -3.2 19 -7.2 74 74 W 9 15 30.05 1017 10 16.0934 0 0
5:55 am 05:55 Cloudy 28 -2.5 19 -7.1 71 71 W 7 11 30.04 1017 10 16.0934 0 0
6:15 am 06:15 Cloudy 27 -3 18 -7.6 71 71 W 9 15 30.05 1018 10 16.0934 0 0
6:35 am 06:35 Cloudy 28 -2.5 18 -8 66 66 W 5 7 30.05 1018 10 16.0934 0 0
6:55 am 06:55 Mostly Cloudy 26 -3.1 17 -8.1 69 69 W 5 7 30.06 1018 10 16.0934 0 0
7:15 am 07:15 Mostly Cloudy 27 -2.8 18 -8 68 68 Calm 30.05 1018 10 16.0934 0 0
7:35 am 07:35 Cloudy 28 -2.5 18 -8 66 66 Calm 30.05 1018 10 16.0934 0 0
7:55 am 07:55 Cloudy 27 -2.9 18 -8 68 68 Calm 30.04 1017 10 16.0934 0 0
8:15 am 08:15 Mostly Cloudy 26 -3.5 18 -7.9 72 72 Calm 30.05 1018 10 16.0934 0 0
8:35 am 08:35 Mostly Cloudy 26 -3.5 18 -8 71 71 W 5 7 30.05 1018 10 16.0934 0 0
8:55 am 08:55 Partly Cloudy 26 -3.1 19 -7.4 73 73 W 3 6 30.04 1017 10 16.0934 0 0
9:15 am 09:15 Sunny 28 -2.3 19 -7.4 68 68 Calm 30.05 1017 10 16.0934 0 0
9:35 am 09:35 Sunny 29 -1.9 19 -7.3 67 67 WSW 3 6 30.05 1018 10 16.0934 0 0
9:55 am 09:55 Mostly Cloudy 31 -0.7 19 -7.2 62 62 W 8 13 30.05 1018 10 16.0934 0 0
10:15 am 10:15 Cloudy 32 0 18 -7.6 57 57 WSW 5 7 30.04 1017 10 16.0934 0 0
10:35 am 10:35 Cloudy 33 0.5 18 -7.7 55 55 W 8 13 30.05 1018 10 16.0934 0 0
10:55 am 10:55 Cloudy 35 1.5 18 -7.6 51 51 WSW 7 11 30.03 1017 10 16.0934 0 0
11:15 am 11:15 Cloudy 36 2.2 19 -7.5 49 49 W 9 15 30.01 1016 10 16.0934 0 0
11:35 am 11:35 Cloudy 37 3 18 -7.9 45 45 W 12 19 30 1016 10 16.0934 0 0
11:55 am 11:55 Cloudy 39 4.1 20 -6.9 45 45 W 7 11 29.99 1015 10 16.0934 0 0
12:15 pm 12:15 Cloudy 45 7.1 21 -6 39 39 NW 21 33 29.95 1014 10 16.0934 0 0
12:35 pm 12:35 Cloudy 45 7.2 22 -5.6 40 40 NNW 17 28 29.94 1014 10 16.0934 0 0
12:55 pm 12:55 Mostly Cloudy 44 6.7 22 -5.5 42 42 NNW 14 22 29.93 1014 10 16.0934 0 0
1:15 pm 13:15 Mostly Cloudy 45 7.4 22 -5.8 39 39 NNW 23 37 29.92 1013 10 16.0934 0 0
1:35 pm 13:35 Cloudy 45 7.1 21 -6.1 39 39 NNW 22 35 29.92 1013 10 16.0934 0 0
1:55 pm 13:55 Mostly Cloudy 46 7.8 21 -6.1 37 37 NNW 20 31 29.91 1013 10 16.0934 0 0
2:15 pm 14:15 Partly Cloudy 45 7.4 21 -6 38 38 NNW 22 35 29.93 1013 10 16.0934 0 0
2:35 pm 14:35 Sunny 45 7 21 -5.9 40 40 NNW 21 33 29.93 1014 10 16.0934 0 0
2:55 pm 14:55 Partly Cloudy 45 7.2 23 -5 42 42 NNW 18 30 29.93 1013 10 16.0934 0 0
3:15 pm 15:15 Mostly Cloudy 45 7.1 23 -5.2 42 42 NNW 13 20 29.93 1013 10 16.0934 0 0
3:35 pm 15:35 Mostly Cloudy 46 7.6 22 -5.3 40 40 NNW 14 22 29.93 1014 10 16.0934 0 0
3:55 pm 15:55 Partly Cloudy 45 7.2 23 -5.2 41 41 NNW 16 26 29.94 1014 10 16.0934 0 0
4:15 pm 16:15 Cloudy 45 7 23 -5 42 42 NNW 10 17 29.95 1014 10 16.0934 0 0
4:35 pm 16:35 Cloudy 44 6.5 23 -5.2 43 43 N 16 26 29.96 1015 10 16.0934 0 0
4:55 pm 16:55 Partly Cloudy 43 6.1 22 -5.5 44 44 N 15 24 29.97 1015 10 16.0934 0 0
5:15 pm 17:15 Partly Cloudy 42 5.8 22 -5.5 44 44 N 16 26 29.98 1015 10 16.0934 0 0
5:35 pm 17:35 Mostly Cloudy 41 5.2 22 -5.3 47 47 N 14 22 30.01 1016 10 16.0934 0 0
5:55 pm 17:55 Mostly Cloudy 41 4.8 22 -5.7 47 47 N 15 24 30.01 1016 10 16.0934 0 0
6:15 pm 18:15 Mostly Cloudy 40 4.3 22 -5.6 49 49 N 14 22 30.01 1016 10 16.0934 0 0
6:35 pm 18:35 Mostly Cloudy 39 4 22 -5.5 50 50 N 10 17 30.02 1016 10 16.0934 0 0
6:55 pm 18:55 Mostly Cloudy 38 3.2 22 -5.5 53 53 NNW 8 13 30.02 1017 10 16.0934 0 0
7:15 pm 19:15 Partly Cloudy 39 3.7 22 -5.5 51 51 NNW 10 17 30.02 1017 10 16.0934 0 0
7:35 pm 19:35 Partly Cloudy 38 3.4 22 -5.6 52 52 NNW 10 17 30.02 1017 10 16.0934 0 0
7:55 pm 19:55 Partly Cloudy 37 3 22 -5.7 53 53 NNW 8 13 30.03 1017 10 16.0934 0 0
8:15 pm 20:15 Clear 37 2.7 22 -5.7 54 54 NW 8 13 30.03 1017 10 16.0934 0 0
8:35 pm 20:35 Partly Cloudy 34 0.9 21 -6.1 60 60 NW 8 13 30.05 1017 10 16.0934 0 0
8:55 pm 20:55 Clear 33 0.4 21 -6 63 63 WNW 12 19 30.05 1018 10 16.0934 0 0
9:15 pm 21:15 Clear 36 2.3 22 -5.6 56 56 NW 14 22 30.03 1017 10 16.0934 0 0
9:35 pm 21:35 Clear 35 1.8 22 -5.4 59 59 NW 13 20 30.04 1017 10 16.0934 0 0
9:55 pm 21:55 Clear 37 2.6 23 -5 58 58 NW 15 24 30.03 1017 10 16.0934 0 0
10:15 pm 22:15 Clear 36 2.3 23 -5 59 59 NW 14 22 30.04 1017 10 16.0934 0 0
10:35 pm 22:35 Partly Cloudy 37 2.5 24 -4.7 59 59 NW 14 22 30.04 1017 10 16.0934 0 0
10:55 pm 22:55 Mostly Cloudy 37 2.5 24 -4.5 60 60 NW 13 20 30.04 1017 10 16.0934 0 0
11:15 pm 23:15 Mostly Cloudy 37 2.7 24 -4.3 60 60 WNW 13 20 30.04 1017 10 16.0934 0 0
11:35 pm 23:35 Cloudy 37 3 25 -4.1 60 60 WNW 14 22 30.04 1017 10 16.0934 0 0
11:55 pm 23:55 Mostly Cloudy 38 3.3 25 -4.1 59 59 NW 17 28 30.03 1017 10 16.0934 0 0

Powered by AerisWeather